Shawnee, OK

12:05 AM CDT on July 22, 2017 (GMT -0500)
Shawnee Municipal

Weather History for KSNL - March, 2013

Change the Weather History Date:

Friday, March 29, 2013

  Actual Average (KTIK) Record (KTIK)
Temperature  
Mean Temperature 66 °F -  
Max Temperature 73 °F 63 °F 80 °F (2012)
Min Temperature 59 °F 44 °F 32 °F (2003)
Cooling Degree Days 1    
Growing Degree Days 16 (Base 50)    
Moisture  
Dew Point 60 °F    
Average Humidity 83    
Maximum Humidity 100    
Minimum Humidity 69    
Precipitation  
Precipitation 0.00 in - - ()
Sea Level Pressure  
Sea Level Pressure 30.10 in    
Wind  
Wind Speed 10 mph (South)    
Max Wind Speed 22 mph    
Max Gust Speed 29 mph    
Visibility 10 miles    
Events Rain , Thunderstorm    
Averages and records for this station are not official NWS values.
T = Trace of Precipitation, MM = Missing Value Source: NWS Daily Summary

Daily Weather History Graph

Daily Weather History Graph

Search for Another Location

Airport or City:

Trip Planner

Search our weather history database for the weather conditions in past years. The results will help you decide how hot, cold, wet, or windy it might be!

Date:

Astronomy

Mar. 29, 2013 Rise Set
Actual Time 7:18 AM CDT 7:47 PM CDT
Civil Twilight 6:52 AM CDT 8:12 PM CDT
Nautical Twilight 6:22 AM CDT 8:42 PM CDT
Astronomical Twilight 5:52 AM CDT 9:13 PM CDT
Moon 10:41 PM CDT (3/29) 8:34 AM CDT (3/29)
Length of Visible Light 13h 19m
Length of Day
12h 28m
Waning Gibbous, 93% of the Moon is Illuminated
Mar 29
Waning Gibbous
Apr 2
Last Quarter
Apr 10
New
Apr 18
First Quarter
Apr 25
Full

Hourly Weather History & Observations

Time (CDT) Temp. Dew Point Humidity Pressure Visibility Wind Dir Wind Speed Gust Speed Precip Events Conditions
12:15 AM 64.4 °F 55.4 °F 73% 30.13 in 10.0 mi South 10.4 mph 18.4 mph N/A   Mostly Cloudy
12:35 AM 64.4 °F 57.2 °F 77% 30.13 in 10.0 mi South 11.5 mph - N/A   Mostly Cloudy
12:55 AM 64.4 °F 55.4 °F 73% 30.12 in 10.0 mi South 12.7 mph - N/A   Mostly Cloudy
1:15 AM 62.6 °F 55.4 °F 77% 30.12 in 10.0 mi South 9.2 mph - N/A   Mostly Cloudy
1:35 AM 62.6 °F 57.2 °F 82% 30.12 in 10.0 mi South 9.2 mph - N/A   Scattered Clouds
1:55 AM 62.6 °F 57.2 °F 82% 30.12 in 10.0 mi South 9.2 mph - N/A   Mostly Cloudy
2:15 AM 62.6 °F 55.4 °F 77% 30.12 in 10.0 mi South 8.1 mph - N/A   Mostly Cloudy
2:35 AM 62.6 °F 57.2 °F 82% 30.12 in 10.0 mi South 6.9 mph - N/A   Scattered Clouds
2:55 AM 60.8 °F 57.2 °F 88% 30.11 in 10.0 mi South 10.4 mph - N/A   Scattered Clouds
3:15 AM 60.8 °F 57.2 °F 88% 30.11 in 10.0 mi South 8.1 mph - N/A   Clear
3:55 AM 60.8 °F 59.0 °F 94% 30.10 in 10.0 mi South 6.9 mph - N/A   Clear
4:15 AM 60.8 °F 59.0 °F 94% 30.10 in 10.0 mi South 6.9 mph - N/A   Clear
4:35 AM 59.0 °F 57.2 °F 94% 30.10 in 10.0 mi South 6.9 mph - N/A   Scattered Clouds
5:15 AM 60.8 °F 59.0 °F 94% 30.10 in 10.0 mi South 8.1 mph - N/A   Scattered Clouds
5:35 AM 60.8 °F 59.0 °F 94% 30.10 in 10.0 mi South 8.1 mph - N/A   Scattered Clouds
5:55 AM 60.8 °F 59.0 °F 94% 30.10 in 10.0 mi South 8.1 mph - N/A   Scattered Clouds
6:15 AM 60.8 °F 59.0 °F 94% 30.10 in 10.0 mi SSW 10.4 mph - N/A   Mostly Cloudy
6:35 AM 60.8 °F 59.0 °F 94% 30.10 in 10.0 mi South 9.2 mph - N/A   Mostly Cloudy
6:55 AM 60.8 °F 59.0 °F 94% 30.11 in 10.0 mi South 8.1 mph - N/A   Scattered Clouds
7:15 AM 60.8 °F 60.8 °F 100% 30.12 in 10.0 mi South 6.9 mph - N/A   Clear
7:35 AM 59.0 °F 59.0 °F 100% 30.12 in 10.0 mi South 5.8 mph - N/A   Clear
7:55 AM 59.0 °F 59.0 °F 100% 30.13 in 10.0 mi South 6.9 mph - N/A   Clear
8:15 AM 60.8 °F 60.8 °F 100% 30.13 in 10.0 mi South 8.1 mph - N/A   Clear
8:35 AM 62.6 °F 60.8 °F 94% 30.13 in 10.0 mi South 8.1 mph - N/A   Clear
8:55 AM 62.6 °F 60.8 °F 94% 30.13 in 10.0 mi South 9.2 mph - N/A   Clear
9:15 AM 64.4 °F 60.8 °F 88% 30.13 in 10.0 mi SSW 11.5 mph 16.1 mph N/A   Scattered Clouds
9:35 AM 66.2 °F 60.8 °F 83% 30.13 in 10.0 mi SSW 15.0 mph - N/A   Scattered Clouds
9:55 AM 68.0 °F 62.6 °F 83% 30.13 in 10.0 mi SSW 12.7 mph - N/A   Scattered Clouds
10:15 AM 68.0 °F 60.8 °F 78% 30.13 in 10.0 mi SSW 12.7 mph - N/A   Scattered Clouds
10:35 AM 66.2 °F 60.8 °F 83% 30.15 in 10.0 mi SW 10.4 mph - N/A   Scattered Clouds
10:55 AM 66.2 °F 60.8 °F 83% 30.16 in 10.0 mi SW 8.1 mph - N/A   Overcast
11:15 AM 64.4 °F 60.8 °F 88% 30.06 in 10.0 mi SSE 21.9 mph - N/A Rain Light Rain
11:35 AM 64.4 °F 62.6 °F 94% 30.13 in 10.0 mi WNW 20.7 mph 28.8 mph N/A   Scattered Clouds
11:55 AM 66.2 °F 62.6 °F 88% 30.15 in 10.0 mi SSW 5.8 mph - N/A Thunderstorm Mostly Cloudy
12:15 PM 66.2 °F 62.6 °F 88% 30.15 in 10.0 mi SSW 3.5 mph - N/A   Overcast
12:35 PM 68.0 °F 62.6 °F 83% 30.14 in 10.0 mi South 3.5 mph - N/A   Mostly Cloudy
12:55 PM 71.6 °F 62.6 °F 73% 30.13 in 10.0 mi SW 9.2 mph - N/A   Mostly Cloudy
1:15 PM 71.6 °F 62.6 °F 73% 30.12 in 10.0 mi SSW 9.2 mph - N/A   Mostly Cloudy
1:35 PM 71.6 °F 60.8 °F 69% 30.12 in 10.0 mi South 11.5 mph - N/A   Mostly Cloudy
1:55 PM 71.6 °F 62.6 °F 73% 30.11 in 10.0 mi SSE 10.4 mph - N/A Thunderstorm Mostly Cloudy
2:15 PM 71.6 °F 62.6 °F 73% 30.10 in 10.0 mi SSW 9.2 mph - N/A   Mostly Cloudy
2:35 PM 71.6 °F 62.6 °F 73% 30.09 in 10.0 mi South 10.4 mph - N/A   Mostly Cloudy
2:55 PM 71.6 °F 62.6 °F 73% 30.09 in 10.0 mi SSE 8.1 mph - N/A   Mostly Cloudy
3:15 PM 73.4 °F 62.6 °F 69% 30.08 in 10.0 mi SSE 11.5 mph - N/A   Mostly Cloudy
3:35 PM 73.4 °F 62.6 °F 69% 30.08 in 10.0 mi SE 10.4 mph - N/A   Mostly Cloudy
3:55 PM 71.6 °F 62.6 °F 73% 30.08 in 10.0 mi South 6.9 mph - N/A   Overcast
4:15 PM 71.6 °F 60.8 °F 69% 30.09 in 10.0 mi SSE 8.1 mph - N/A   Overcast
4:35 PM 71.6 °F 60.8 °F 69% 30.08 in 10.0 mi SSE 6.9 mph - N/A   Overcast
4:55 PM 71.6 °F 60.8 °F 69% 30.07 in 10.0 mi SE 11.5 mph - N/A   Mostly Cloudy
5:15 PM 73.4 °F 62.6 °F 69% 30.06 in 10.0 mi SE 15.0 mph - N/A   Mostly Cloudy
5:35 PM 73.4 °F 62.6 °F 69% 30.06 in 10.0 mi SE 10.4 mph - N/A   Scattered Clouds
6:15 PM 71.6 °F 62.6 °F 73% 30.04 in 10.0 mi SE 13.8 mph - N/A   Mostly Cloudy
6:35 PM 71.6 °F 62.6 °F 73% 30.05 in 10.0 mi SE 12.7 mph - N/A   Clear
6:55 PM 69.8 °F 62.6 °F 78% 30.06 in 10.0 mi SE 12.7 mph 18.4 mph N/A   Clear
7:15 PM 68.0 °F 60.8 °F 78% 30.07 in 10.0 mi SE 12.7 mph 16.1 mph N/A   Scattered Clouds
7:35 PM 68.0 °F 62.6 °F 83% 30.07 in 10.0 mi ESE 10.4 mph - N/A   Mostly Cloudy
8:15 PM 68.0 °F 60.8 °F 78% 30.07 in 10.0 mi SSE 15.0 mph 18.4 mph N/A   Mostly Cloudy
8:35 PM 66.2 °F 60.8 °F 83% 30.07 in 10.0 mi SSE 11.5 mph 17.3 mph N/A   Scattered Clouds
8:55 PM 66.2 °F 60.8 °F 83% 30.06 in 10.0 mi SE 13.8 mph 20.7 mph N/A   Clear
9:15 PM 66.2 °F 60.8 °F 83% 30.06 in 10.0 mi SE 12.7 mph - N/A Thunderstorm Clear
9:35 PM 66.2 °F 60.8 °F 83% 30.06 in 10.0 mi SE 15.0 mph - N/A   Clear
10:15 PM 64.4 °F 60.8 °F 88% 30.06 in 10.0 mi SE 12.7 mph - N/A Thunderstorm Clear
10:35 PM 64.4 °F 60.8 °F 88% 30.08 in 10.0 mi SE 8.1 mph - N/A   Clear
10:55 PM 64.4 °F 60.8 °F 88% 30.07 in 10.0 mi SSE 10.4 mph - N/A Thunderstorm Mostly Cloudy
11:15 PM 64.4 °F 60.8 °F 88% 30.07 in 10.0 mi SE 8.1 mph - N/A Thunderstorm Scattered Clouds
11:35 PM 64.4 °F 60.8 °F 88% 30.08 in 10.0 mi ESE 8.1 mph - N/A   Scattered Clouds